[[{"header":{"parameterUnit":"m.s-1","parameterCategory":1,"la1":30.2991,"la2":30.254,"lo1":-89.0895,"lo2":-89.0444,"dy":0.0017,"dx":0.0017,"nx":28,"ny":28,"refTime":"2023-10-27T03:00:00:Z","depth":0,"parameterNumber":2,"parameterNumberName":"U-component_of_WINDS"},"data":[0,0,0,0,0,0,0,0,0,0,0,0,0,0,0,0,0,0,0,0,0,0,0,0,0,0,0,0,0,0,0,0,0,0,0,0,0,0,0,0,0,0,0,0,0,0,0,0,0,0,0,0,0,0,0,0,0,0,-2.7046,-2.7046,0,-2.7045,-2.7045,-2.7045,-2.6966,-2.6964,-2.6962,-2.696,-2.696,-2.6962,-2.6964,0,0,0,0,0,0,0,0,0,0,0,0,0,-2.6978,-2.698,-2.7046,-2.7046,-2.7046,-2.7045,-2.7045,-2.7045,-2.6967,-2.6964,-2.6962,-2.6959,-2.696,-2.6962,-2.6964,0,0,0,0,0,0,0,0,0,0,0,0,0,-2.6996,-2.6981,-2.7046,-2.7006,-2.7003,-2.7045,-2.7045,-2.7045,-2.6967,-2.6964,-2.6961,-2.6958,-2.6959,-2.6962,-2.6964,-2.7045,0,0,-2.6973,-2.6975,0,0,0,0,0,0,0,0,-2.6995,-2.6998,-2.7012,-2.7009,-2.7005,-2.7003,-2.7021,-2.7045,-2.6968,-2.6981,-2.696,-2.6956,-2.6977,-2.6978,-2.6985,-2.7045,-2.7045,-2.6974,-2.6975,-2.6977,-2.6977,0,0,0,0,0,0,0,-2.6994,-2.6998,-2.7045,-2.7012,-2.7008,-2.6989,-2.6988,-2.7026,-2.6996,-2.6979,-2.6974,-2.6975,-2.6974,-2.6982,-2.6984,-2.7045,-2.6974,-2.6976,-2.6978,-2.6979,-2.717,-2.7173,0,0,0,0,0,0,-2.6998,-2.6998,-2.7045,-2.7045,-2.6992,-2.6993,-2.6991,-2.7007,-2.6996,-2.6991,-2.6977,-2.6971,-2.6979,-2.6981,-2.6984,-2.7077,-2.6977,-2.6979,-2.6981,-2.7167,-2.7171,-2.7174,0,0,0,0,0,0,-2.6997,-2.7003,-2.7045,-2.702,-2.7024,-2.6997,-2.7015,-2.7008,-2.7016,-2.6994,-2.6988,-2.6991,-2.6976,-2.698,-2.703,-2.7076,-2.6981,-2.6983,-2.7163,-2.7168,-2.7173,-2.7264,0,0,0,0,0,0,-2.6995,-2.7003,-2.7033,-2.7021,-2.7026,-2.7092,-2.7017,-2.701,-2.7021,-2.7013,-2.7005,-2.7001,-2.6974,-2.7026,-2.7033,-2.7078,-2.6986,-2.7159,-2.7165,-2.7171,-2.7256,-2.7271,-2.7284,0,0,0,0,0,-2.6993,-2.7059,-2.7035,-2.7041,-2.7063,-2.7095,-2.7097,-2.7065,-2.7025,-2.7055,-2.7041,-2.7001,-2.707,-2.7032,-2.7039,-2.7086,-2.7156,-2.7163,-2.7171,-2.725,-2.7268,-2.7283,0,0,0,0,0,0,-2.7077,-2.7057,-2.703,-2.7094,-2.7097,-2.7081,-2.7118,-2.7085,-2.7099,-2.7091,-2.705,-2.7049,-2.7106,-2.7101,-2.7059,-2.7162,-2.7106,-2.7115,-2.7164,-2.7181,-2.7194,-2.7194,-2.6988,0,0,0,0,0,-2.7103,-2.7131,-2.7111,-2.717,-2.7173,-2.7146,-2.7158,-2.7133,-2.7134,-2.7135,-2.7124,-2.7127,-2.7149,-2.7165,-2.7184,-2.7255,-2.7252,-2.7291,-2.7305,-2.7316,-2.7324,-2.7361,-2.7378,-2.7199,-2.7199,-2.7199,0,0,-2.7157,-2.715,-2.7169,-2.7187,-2.7186,-2.7215,-2.7147,-2.7181,-2.7202,-2.714,-2.7187,-2.7179,-2.718,-2.7241,-2.7267,-2.7238,-2.7373,-2.7325,-2.7335,-2.7337,-2.7371,-2.7388,-2.7403,-2.7204,-2.7203,-2.7202,0,0,-2.7271,-2.7268,-2.7316,-2.7316,-2.7316,-2.7297,-2.7309,-2.7299,-2.7291,-2.7337,-2.7291,-2.7316,-2.7355,-2.7357,-2.7364,-2.7478,-2.7442,-2.7485,-2.7557,-2.7593,-2.7608,-2.762,-2.7661,-2.7676,-2.7494,-2.7494,-2.7494,0,-2.7338,-2.738,-2.7345,-2.7382,-2.7391,-2.7336,-2.7384,-2.7386,-2.7393,-2.74,-2.7367,-2.7415,-2.7411,-2.7472,-2.75,-2.7507,-2.7519,-2.7486,-2.7608,-2.762,-2.7631,-2.767,-2.7685,-2.7499,-2.7499,-2.7498,-2.7498,0,-2.7463,-2.7493,-2.7532,-2.7539,-2.7552,-2.7595,-2.7566,-2.7584,-2.7558,-2.7543,-2.7591,-2.7584,-2.7601,-2.7614,-2.7589,-2.7671,-2.7653,-2.7615,-2.7557,-2.7654,-2.769,-2.7704,-2.7507,-2.7505,-2.7504,-2.7502,0,0,-2.7629,-2.7616,-2.7631,-2.7633,-2.7629,-2.7651,-2.7692,-2.7708,-2.7724,-2.773,-2.7763,-2.7797,-2.7761,-2.7769,-2.7744,-2.7776,-2.7867,-2.7734,-2.7733,-2.7758,-2.7957,-2.7986,-2.8003,-2.7843,-2.7845,-2.7848,-2.7957,0,-2.7739,-2.7807,-2.7776,-2.7847,-2.7874,-2.7823,-2.7857,-2.7859,-2.7846,-2.7867,-2.7853,-2.7878,-2.783,-2.7833,-2.7863,-2.785,-2.7906,-2.7841,-2.7873,-2.7874,-2.7874,-2.8022,-2.8052,-2.8155,-2.797,-2.7973,-2.7974,0,-2.7876,-2.7887,-2.7961,-2.7952,-2.7962,-2.7994,-2.8006,-2.8028,-2.8028,-2.8016,-2.8024,-2.7992,-2.803,-2.7973,-2.8026,-2.7983,-2.7994,-2.7989,-2.7992,-2.7994,-2.793,-2.8027,-2.8187,-2.8203,-2.7996,-2.7994,-2.7993,0,-2.799,-2.8024,-2.8072,-2.8076,-2.8066,-2.8089,-2.8086,-2.8083,-2.8095,-2.8106,-2.8113,-2.8129,-2.8137,-2.815,-2.8123,-2.8084,-2.818,-2.812,-2.8171,-2.8172,-2.8193,-2.8192,-2.8358,-2.8201,-2.8201,-2.8201,-2.82,0,-2.8115,-2.8162,-2.8123,-2.8153,-2.8204,-2.8168,-2.822,-2.8211,-2.8209,-2.8237,-2.8193,-2.822,-2.8182,-2.8205,-2.8183,-2.823,-2.8235,-2.8226,-2.822,-2.823,-2.8231,-2.8237,-2.8229,-2.8205,-2.8204,-2.8203,-2.8202,0,-2.8251,-2.8226,-2.8276,-2.8262,-2.826,-2.8298,-2.8286,-2.8314,-2.8298,-2.8333,-2.8339,-2.8314,-2.8339,-2.8313,-2.8336,-2.8322,-2.8385,-2.8368,-2.8385,-2.838,-2.8433,-2.8428,-2.8607,-2.8629,-2.8459,-2.846,-2.8462,0,-2.8332,-2.8368,-2.8358,-2.8373,-2.8372,-2.8397,-2.8409,-2.8375,-2.8389,-2.8392,-2.8419,-2.8439,-2.8454,-2.8496,-2.8481,-2.8498,-2.8481,-2.8543,-2.8484,-2.8493,-2.8482,-2.848,-2.8483,-2.8555,-2.8557,-2.8559,-2.856,0,-2.848,-2.8466,-2.8484,-2.8499,-2.8514,-2.8524,-2.853,-2.8545,-2.851,-2.8528,-2.8553,-2.8564,-2.8588,-2.8609,-2.8622,-2.8618,-2.8584,-2.8579,-2.8591,-2.8602,-2.861,-2.8606,-2.8418,-2.8575,-2.8573,-2.8572,-2.8571,-2.8571,-2.8591,-2.862,-2.8617,-2.8639,-2.864,-2.8647,-2.8672,-2.8659,-2.8679,-2.8695,-2.8674,-2.8705,-2.8704,-2.8717,-2.8718,-2.8741,-2.8715,-2.8734,-2.8738,-2.8743,-2.8751,-2.8607,-2.8744,-2.8743,-2.8743,-2.8742,-2.8742,0,-2.8736,-2.8732,-2.8752,-2.8763,-2.878,-2.8746,-2.8751,-2.8768,-2.8795,-2.8797,-2.8813,-2.8841,-2.8861,-2.8847,-2.8865,-2.8886,-2.8871,-2.8892,-2.889,-2.889,-2.8774,-2.8761,-2.8904,-2.8904,-2.8904,-2.8904,-2.8904,-2.8904,-2.8814,-2.886,-2.8846,-2.8893,-2.8888,-2.8918,-2.8924,-2.893,-2.8931,-2.8965,-2.8981,-2.8972,-2.8968,-2.8984,-2.9002,-2.8997,-2.9005,-2.9032,-2.9022,-2.8914,-2.8898,-2.8883,-2.887,-2.9034,-2.9035,-2.9136,-2.9137,-2.9138]},{"header":{"parameterUnit":"m.s-1","parameterCategory":1,"la1":30.2991,"la2":30.254,"lo1":-89.0895,"lo2":-89.0444,"dy":0.0017,"dx":0.0017,"nx":28,"ny":28,"refTime":"2023-10-27T03:00:00:Z","depth":0,"parameterNumber":3,"parameterNumberName":"V-component_of_WINDS"},"data":[0,0,0,0,0,0,0,0,0,0,0,0,0,0,0,0,0,0,0,0,0,0,0,0,0,0,0,0,0,0,0,0,0,0,0,0,0,0,0,0,0,0,0,0,0,0,0,0,0,0,0,0,0,0,0,0,0,0,0.5437,0.5437,0,0.5418,0.5418,0.5417,0.5394,0.5394,0.5393,0.5393,0.5371,0.5371,0.537,0,0,0,0,0,0,0,0,0,0,0,0,0,0.5454,0.5454,0.5437,0.5437,0.5437,0.5418,0.5418,0.5417,0.5394,0.5394,0.5393,0.5393,0.5371,0.5371,0.537,0,0,0,0,0,0,0,0,0,0,0,0,0,0.5442,0.5454,0.5437,0.5423,0.5422,0.5418,0.5418,0.5417,0.5394,0.5394,0.5393,0.5393,0.5371,0.5371,0.537,0.5379,0,0,0.5369,0.5369,0,0,0,0,0,0,0,0,0.5442,0.5441,0.5425,0.5424,0.5422,0.5408,0.5415,0.5404,0.5394,0.5405,0.5393,0.5392,0.5384,0.5382,0.538,0.5378,0.5377,0.5369,0.5369,0.5369,0.5369,0,0,0,0,0,0,0,0.5443,0.5442,0.543,0.5425,0.5423,0.5417,0.5415,0.5413,0.5397,0.5404,0.5402,0.54,0.5383,0.538,0.5379,0.5376,0.5369,0.5369,0.5369,0.5368,0.5382,0.5383,0,0,0,0,0,0,0.5447,0.5443,0.543,0.5429,0.5431,0.5418,0.5415,0.5413,0.5397,0.5394,0.5401,0.5399,0.5381,0.5379,0.5378,0.5388,0.5369,0.5368,0.5368,0.5382,0.5382,0.5383,0,0,0,0,0,0,0.5447,0.5446,0.5431,0.5435,0.5433,0.5418,0.5416,0.5413,0.541,0.5395,0.5392,0.5401,0.538,0.5379,0.5379,0.5387,0.5368,0.5368,0.5381,0.5382,0.5383,0.5407,0,0,0,0,0,0,0.5448,0.5446,0.5449,0.5436,0.5433,0.5433,0.5416,0.5413,0.541,0.5408,0.5394,0.5392,0.538,0.538,0.5379,0.5386,0.5368,0.538,0.5381,0.5382,0.5405,0.5409,0.5411,0,0,0,0,0,0.5448,0.5456,0.5449,0.5448,0.5436,0.5433,0.5432,0.5419,0.5411,0.5414,0.5404,0.5392,0.5386,0.538,0.5379,0.5386,0.538,0.5381,0.5382,0.5404,0.5408,0.5411,0,0,0,0,0,0,0.5469,0.5454,0.5446,0.545,0.5443,0.5429,0.5432,0.5423,0.5418,0.5416,0.5399,0.5397,0.54,0.5393,0.5386,0.5394,0.5381,0.5382,0.5398,0.5402,0.5405,0.5406,0.5367,0,0,0,0,0,0.5474,0.5473,0.546,0.5464,0.5461,0.5448,0.5446,0.5437,0.5429,0.5426,0.5416,0.5408,0.5405,0.5403,0.5399,0.5405,0.5402,0.5409,0.5412,0.5414,0.5415,0.5419,0.5423,0.5387,0.5387,0.5387,0,0,0.5484,0.5476,0.5476,0.5468,0.5462,0.5461,0.5445,0.5445,0.5444,0.5425,0.5426,0.5419,0.5409,0.5413,0.5414,0.5407,0.5425,0.5416,0.5418,0.5418,0.5421,0.5425,0.5428,0.5388,0.5388,0.5388,0,0,0.5503,0.5496,0.55,0.5494,0.5486,0.5477,0.5478,0.5466,0.5461,0.5462,0.5448,0.5447,0.5441,0.5436,0.5432,0.5451,0.544,0.545,0.5465,0.547,0.5472,0.5475,0.5483,0.5485,0.5451,0.5451,0.5452,0,0.5516,0.5515,0.5503,0.5504,0.5501,0.5485,0.5489,0.5484,0.5475,0.5473,0.5466,0.546,0.5452,0.5455,0.546,0.5457,0.5459,0.5451,0.5473,0.5475,0.5477,0.5485,0.5488,0.5453,0.5453,0.5453,0.5452,0,0.5533,0.5533,0.5537,0.5529,0.5527,0.553,0.5518,0.5517,0.5508,0.5501,0.5502,0.5493,0.5488,0.5488,0.5478,0.549,0.5486,0.5476,0.5463,0.5482,0.5489,0.5492,0.5455,0.5454,0.5454,0.5454,0,0,0.5563,0.555,0.5552,0.5549,0.5539,0.5539,0.5541,0.5537,0.5537,0.5531,0.5533,0.553,0.5522,0.5518,0.5508,0.5512,0.5529,0.5501,0.5501,0.5508,0.5542,0.555,0.5553,0.5522,0.5522,0.5523,0.5543,0,0.558,0.5584,0.5573,0.558,0.558,0.5566,0.5568,0.5563,0.5556,0.5555,0.5547,0.5545,0.5534,0.5532,0.5535,0.5526,0.5536,0.5524,0.5524,0.5524,0.5527,0.5557,0.5564,0.5584,0.5546,0.5546,0.5546,0,0.56,0.5597,0.5604,0.5596,0.5596,0.5598,0.5595,0.5594,0.5588,0.5582,0.5579,0.5569,0.5571,0.5559,0.5562,0.5555,0.5554,0.555,0.555,0.555,0.5536,0.5558,0.559,0.5594,0.555,0.555,0.555,0,0.5623,0.562,0.5625,0.5623,0.5613,0.5615,0.5611,0.5604,0.5603,0.56,0.5599,0.5596,0.5594,0.5592,0.5581,0.5573,0.5586,0.5572,0.5582,0.5582,0.5585,0.5585,0.5619,0.5584,0.5584,0.5584,0.5584,0,0.5643,0.5648,0.5635,0.5638,0.5643,0.5631,0.5637,0.5632,0.5626,0.5628,0.5615,0.5617,0.5602,0.5602,0.5594,0.5598,0.5597,0.5594,0.5591,0.5595,0.5596,0.5594,0.5593,0.5585,0.5584,0.5584,0.5584,0,0.5669,0.566,0.5664,0.5655,0.5653,0.5658,0.565,0.5653,0.5646,0.5648,0.5648,0.5637,0.5637,0.5626,0.5623,0.5617,0.5626,0.5621,0.5628,0.5627,0.5637,0.5637,0.5672,0.5676,0.5638,0.5638,0.5639,0,0.5683,0.5687,0.5679,0.568,0.5677,0.5678,0.5677,0.5666,0.5666,0.566,0.5663,0.5663,0.5661,0.5662,0.5653,0.5651,0.5646,0.5659,0.5646,0.565,0.5648,0.5648,0.5649,0.5661,0.5662,0.5662,0.5663,0,0.5709,0.5705,0.5705,0.5704,0.5704,0.5702,0.5699,0.5701,0.5689,0.5689,0.5689,0.5689,0.5687,0.5686,0.5683,0.5679,0.5669,0.5667,0.5669,0.5673,0.5678,0.5677,0.5636,0.5666,0.5666,0.5665,0.5665,0.5665,0.573,0.5733,0.5729,0.573,0.5727,0.5726,0.5728,0.5722,0.5722,0.5721,0.5714,0.5716,0.5711,0.5706,0.5703,0.5705,0.5698,0.5701,0.5702,0.5703,0.5706,0.5678,0.5704,0.5704,0.5704,0.5704,0.5703,0,0.5756,0.5753,0.5754,0.5752,0.5753,0.5745,0.5742,0.5743,0.5745,0.5742,0.5741,0.5743,0.5743,0.5735,0.5734,0.5737,0.5733,0.5737,0.5737,0.5736,0.5711,0.571,0.5741,0.5741,0.5741,0.5741,0.5741,0.5741,0.577,0.5776,0.5772,0.5776,0.5773,0.5776,0.5775,0.5774,0.5772,0.5774,0.5774,0.577,0.5765,0.5764,0.5764,0.5762,0.5762,0.5769,0.5765,0.5742,0.5738,0.5735,0.5733,0.5769,0.5769,0.5791,0.5791,0.5791]}]]